Вернуться в каталог

STARLINK-5938

АктивенСвязьVLEO
NORAD 55960·PAYLOAD·🇺🇸 United States

Запущен Mar 17, 2023 с Vandenberg Space Force Base

Loading…

Ближайшие Пролёты (ближайшие 24 часа)

TLE

СвежийSource: CelesTrak SupGP

Эпоха: Sep 15, 2026, 02:17 UTC

1 55960C 23037AY  26258.09562500  .00040383  00000+0  33844-2 0  2589
2 55960  70.0009 146.9445 0002843 274.0564  54.8682 14.98308767    18

Отслеживайте STARLINK-5938 в реальном времени с AllMySat

Download on the App Store